Home > Weather > Neuwied > Past weeks

Flag for Germany Past Weather in Neuwied, Rhineland-Palatinate, Germany — Yesterday and Last 2 Weeks

Now
64 °F

Mild.


Feels Like: 64 °F
Forecast: 53 / 68 °F
Wind: 14 mph from Southwest

Location: Buechel

Current Time: Jul 1, 2016 at 5:30:14 PM

Latest Report: Jul 1, 2016 at 4:20 PM


Visibility: 5 mi

Pressure: 29.98 "Hg

Humidity: 78%

Dew Point: 57 °F

Location of NeuwiedLocation

Past Weather in Neuwied — Graph

°F

Neuwied Temperature Yesterday

Maximum temperature yesterday: 64 °F (at 2:20 PM)
Minimum temperature yesterday: 57 °F (at 12:20 AM)
Average temperature yesterday: 61 °F

High & Low Weather Summary for the Past Weeks

 TemperatureHumidityPressure
High86 °F (Jun 23, 3:20 PM)100% (Jun 16, 4:55 PM)30.27 "Hg (Jun 16, 4:55 PM)
Low46 °F (Jun 20, 3:20 AM)49% (Jun 23, 3:20 PM)29.59 "Hg (Jun 16, 7:20 PM)
Average60 °F84%30.05 "Hg
* Reported Jun 16 3:20 PM — Jul 1 3:20 PM, Neuwied, Weather by CustomWeather, © 2016

Note: Actual official high and low records may vary slightly from our data, if they occured in-between our weather recording intervals... More about our weather records

Advertising

Neuwied Weather History for the Previous 24 Hours

Scroll right to see more
 ConditionsComfort  
Time TempWeatherWind HumidityBarometerVisibility
3:20 PM
Fri, Jul 1
63 °FMild.9 mph83%30.01 "Hg4 mi
2:20 PM63 °FMild.16 mph77%30.01 "Hg5 mi
1:20 PM63 °FMild.16 mph77%30.01 "Hg5 mi
12:20 PM63 °FPartly sunny.16 mph77%30.01 "HgN/A
11:20 AM64 °FBroken clouds.17 mph78%30.01 "HgN/A
10:20 AM64 °FBroken clouds.12 mph78%30.01 "HgN/A
9:20 AM63 °FBroken clouds.13 mph83%30.01 "HgN/A
8:20 AM61 °FPartly sunny.12 mph88%30.01 "HgN/A
7:20 AM59 °FPartly sunny.13 mph94%29.98 "HgN/A
6:20 AM59 °FLow clouds.12 mph94%30.01 "HgN/A
5:20 AM61 °FLow clouds.12 mph88%29.98 "HgN/A
4:20 AM61 °FCool.10 mph88%29.98 "Hg4 mi
3:20 AM61 °FCool.9 mph88%29.98 "Hg4 mi
2:20 AM61 °FCool.9 mph88%30.01 "Hg4 mi
1:20 AM61 °FCool.10 mph88%30.01 "Hg4 mi
12:20 AM61 °FCool.10 mph88%30.01 "Hg4 mi
11:20 PM
Thu, Jun 30
61 °FCool.9 mph88%30.01 "Hg4 mi
10:20 PM61 °FScattered clouds.6 mph88%30.01 "HgN/A
9:53 PM61 °FScattered clouds.7 mph88%29.98 "HgN/A
9:20 PM63 °FScattered clouds.9 mph83%29.98 "HgN/A
8:20 PM64 °FBroken clouds.10 mph78%29.98 "HgN/A
7:20 PM64 °FScattered clouds.10 mph78%29.98 "HgN/A
6:20 PM64 °FBroken clouds.10 mph73%29.98 "HgN/A
5:20 PM64 °FBroken clouds.10 mph73%29.98 "HgN/A
Weather by CustomWeather, © 2016

See weather overviewHow to use our weather pages